| time (UTC) | temp C | wind direction | speed KPH | gust KPH | rain 1hr cm | rain 24hr cm | rain mn cm | humidity % | barometer mb |
| 20260505102130 | 11 | 214 | 4.8 | 14.5 | 0.00 | 0.00 | 0.00 | 86 | 1010.8 |
| 20260505101629 | 11 | 203 | 9.7 | 11.3 | 0.00 | 0.00 | 0.00 | 87 | 1010.6 |
| 20260505101125 | 11 | 214 | 4.8 | 11.3 | 0.00 | 0.00 | 0.00 | 87 | 1010.5 |
| 20260505100621 | 11 | 206 | 4.8 | 11.3 | 0.00 | 0.00 | 0.00 | 87 | 1010.7 |
| 20260505100118 | 11 | 188 | 4.8 | 12.9 | 0.00 | 0.00 | 0.00 | 87 | 1010.7 |
| 20260505095614 | 11 | 221 | 8.0 | 14.5 | 0.00 | 0.00 | 0.00 | 87 | 1010.8 |
| 20260505095111 | 11 | 243 | 4.8 | 12.9 | 0.00 | 0.00 | 0.00 | 87 | 1010.6 |
| 20260505094608 | 11 | 225 | 6.4 | 20.9 | 0.00 | 0.00 | 0.00 | 87 | 1010.7 |
| 20260505094104 | 11 | 268 | 6.4 | 11.3 | 0.00 | 0.00 | 0.00 | 87 | 1010.8 |
| 20260505093600 | 10 | 205 | 4.8 | 11.3 | 0.00 | 0.00 | 0.00 | 88 | 1010.7 |
| 20260505093058 | 10 | 183 | 4.8 | 19.3 | 0.00 | 0.00 | 0.00 | 88 | 1010.8 |
| 20260505092555 | 10 | 233 | 4.8 | 14.5 | 0.00 | 0.00 | 0.00 | 88 | 1010.5 |
| 20260505092054 | 10 | 238 | 4.8 | 12.9 | 0.00 | 0.00 | 0.00 | 88 | 1010.4 |
| 20260505091550 | 10 | 205 | 4.8 | 14.5 | 0.00 | 0.00 | 0.00 | 88 | 1010.7 |
| 20260505091048 | 10 | 255 | 4.8 | 14.5 | 0.00 | 0.00 | 0.00 | 88 | 1010.7 |
| 20260505090546 | 10 | 187 | 8.0 | 11.3 | 0.00 | 0.00 | 0.00 | 88 | 1010.8 |
| 20260505090044 | 10 | 196 | 6.4 | 8.0 | 0.00 | 0.00 | 0.00 | 88 | 1010.9 |
| 20260505085541 | 10 | 184 | 3.2 | 11.3 | 0.00 | 0.00 | 0.00 | 88 | 1011.0 |
| 20260505085039 | 10 | 230 | 4.8 | 8.0 | 0.00 | 0.00 | 0.00 | 88 | 1010.6 |
| 20260505084537 | 10 | 221 | 3.2 | 12.9 | 0.00 | 0.00 | 0.00 | 88 | 1010.9 |
| 20260505084035 | 10 | 194 | 0.0 | 11.3 | 0.00 | 0.00 | 0.00 | 88 | 1010.6 |
| 20260505083532 | 10 | 209 | 0.0 | 11.3 | 0.00 | 0.00 | 0.00 | 88 | 1010.7 |
| 20260505083028 | 10 | 225 | 4.8 | 6.4 | 0.00 | 0.00 | 0.00 | 88 | 1010.7 |
| 20260505082524 | 10 | 234 | 12.9 | 12.9 | 0.00 | 0.00 | 0.00 | 88 | 1010.8 |
| 20260505082021 | 10 | 250 | 6.4 | 8.0 | 0.00 | 0.00 | 0.00 | 88 | 1010.9 |
| 20260505081517 | 10 | 213 | 6.4 | 9.7 | 0.00 | 0.00 | 0.00 | 88 | 1010.6 |
| 20260505081015 | 10 | 210 | 4.8 | 16.1 | 0.00 | 0.00 | 0.00 | 88 | 1010.7 |
| 20260505080511 | 10 | 213 | 4.8 | 14.5 | 0.00 | 0.00 | 0.00 | 88 | 1011.0 |
| 20260505080007 | 10 | 190 | 4.8 | 14.5 | 0.00 | 0.00 | 0.00 | 87 | 1010.9 |
| 20260505075503 | 10 | 219 | 4.8 | 12.9 | 0.00 | 0.00 | 0.00 | 87 | 1010.7 |
| 20260505075000 | 10 | 191 | 4.8 | 9.7 | 0.00 | 0.00 | 0.00 | 87 | 1010.8 |
| 20260505074458 | 10 | 231 | 8.0 | 8.0 | 0.00 | 0.00 | 0.00 | 87 | 1011.1 |
| 20260505073955 | 10 | 201 | 0.0 | 11.3 | 0.00 | 0.00 | 0.00 | 87 | 1011.0 |
| 20260505073452 | 10 | 213 | 8.0 | 9.7 | 0.00 | 0.00 | 0.00 | 87 | 1010.9 |
| 20260505072949 | 10 | 262 | 6.4 | 8.0 | 0.00 | 0.00 | 0.00 | 87 | 1011.0 |
| 20260505072445 | 10 | 180 | 0.0 | 12.9 | 0.00 | 0.00 | 0.00 | 87 | 1010.9 |
| 20260505071942 | 10 | 234 | 4.8 | 11.3 | 0.00 | 0.00 | 0.00 | 86 | 1010.9 |
| 20260505071438 | 10 | 235 | 3.2 | 11.3 | 0.00 | 0.00 | 0.00 | 86 | 1010.9 |
| 20260505070936 | 10 | 261 | 3.2 | 9.7 | 0.00 | 0.00 | 0.00 | 86 | 1010.8 |
| 20260505070432 | 11 | 221 | 6.4 | 16.1 | 0.00 | 0.00 | 0.00 | 85 | 1010.9 |
| 20260505065928 | 11 | 240 | 6.4 | 8.0 | 0.00 | 0.00 | 0.00 | 85 | 1011.0 |
| 20260505065425 | 11 | 209 | 8.0 | 11.3 | 0.00 | 0.00 | 0.00 | 85 | 1011.1 |
| 20260505064921 | 11 | 246 | 4.8 | 20.9 | 0.00 | 0.00 | 0.00 | 84 | 1011.1 |
| 20260505064419 | 11 | 212 | 4.8 | 11.3 | 0.00 | 0.00 | 0.00 | 84 | 1011.0 |
| 20260505063917 | 11 | 208 | 16.1 | 16.1 | 0.00 | 0.00 | 0.00 | 84 | 1010.8 |
| 20260505063413 | 11 | 237 | 6.4 | 14.5 | 0.00 | 0.00 | 0.00 | 84 | 1011.0 |
| 20260505062909 | 11 | 235 | 11.3 | 14.5 | 0.00 | 0.00 | 0.00 | 83 | 1010.7 |
| 20260505062407 | 11 | 225 | 4.8 | 11.3 | 0.00 | 0.00 | 0.00 | 83 | 1010.9 |
| 20260505061903 | 11 | 235 | 9.7 | 17.7 | 0.00 | 0.00 | 0.00 | 83 | 1011.1 |
| 20260505061402 | 11 | 200 | 4.8 | 12.9 | 0.00 | 0.00 | 0.00 | 82 | 1011.0 |
| 20260505060859 | 11 | 179 | 9.7 | 20.9 | 0.00 | 0.00 | 0.00 | 82 | 1011.1 |
| 20260505060356 | 11 | 217 | 6.4 | 14.5 | 0.00 | 0.00 | 0.00 | 82 | 1010.9 |
| 20260505055852 | 11 | 226 | 11.3 | 14.5 | 0.00 | 0.00 | 0.00 | 81 | 1011.0 |
| 20260505055348 | 11 | 270 | 4.8 | 11.3 | 0.00 | 0.00 | 0.00 | 81 | 1011.0 |
| 20260505054845 | 11 | 214 | 6.4 | 9.7 | 0.00 | 0.00 | 0.00 | 81 | 1011.0 |
| 20260505054342 | 12 | 192 | 3.2 | 20.9 | 0.00 | 0.00 | 0.00 | 80 | 1010.8 |
| 20260505053841 | 12 | 270 | 6.4 | 22.5 | 0.00 | 0.00 | 0.00 | 80 | 1010.7 |
| 20260505053337 | 11 | 158 | 4.8 | 11.3 | 0.00 | 0.00 | 0.00 | 80 | 1010.7 |
| 20260505052834 | 11 | 185 | 4.8 | 14.5 | 0.00 | 0.00 | 0.00 | 80 | 1010.8 |
| 20260505052331 | 11 | 235 | 4.8 | 19.3 | 0.00 | 0.00 | 0.00 | 80 | 1010.9 |
| 20260505051828 | 12 | 222 | 11.3 | 25.7 | 0.00 | 0.00 | 0.00 | 80 | 1011.2 |
| 20260505051325 | 12 | 236 | 8.0 | 19.3 | 0.00 | 0.00 | 0.00 | 80 | 1010.8 |
| 20260505050823 | 11 | 253 | 6.4 | 20.9 | 0.00 | 0.00 | 0.00 | 79 | 1011.0 |
| 20260505050322 | 12 | 257 | 4.8 | 14.5 | 0.00 | 0.00 | 0.00 | 79 | 1011.2 |
| 20260505041752 | 12 | 267 | 6.4 | 22.5 | 0.00 | 0.00 | 0.00 | 78 | 1011.0 |
| 20260505041249 | 12 | 266 | 4.8 | 11.3 | 0.00 | 0.00 | 0.00 | 77 | 1011.0 |
| 20260505040746 | 12 | 207 | 6.4 | 12.9 | 0.00 | 0.00 | 0.00 | 77 | 1010.9 |
| 20260505040243 | 12 | 227 | 11.3 | 11.3 | 0.00 | 0.00 | 0.00 | 77 | 1011.0 |
| 20260505035740 | 12 | 236 | 8.0 | 11.3 | 0.00 | 0.00 | 0.00 | 77 | 1010.8 |
| 20260505035236 | 12 | 197 | 4.8 | 14.5 | 0.00 | 0.00 | 0.00 | 77 | 1011.0 |
| 20260505034733 | 12 | 229 | 8.0 | 9.7 | 0.00 | 0.00 | 0.00 | 76 | 1011.0 |
| 20260505034230 | 12 | 216 | 3.2 | 17.7 | 0.00 | 0.00 | 0.00 | 76 | 1011.0 |
| 20260505033727 | 12 | 210 | 6.4 | 12.9 | 0.00 | 0.00 | 0.00 | 76 | 1011.0 |
| 20260505033225 | 12 | 229 | 4.8 | 14.5 | 0.00 | 0.00 | 0.00 | 75 | 1011.0 |
| 20260505032722 | 12 | 207 | 9.7 | 16.1 | 0.00 | 0.00 | 0.00 | 75 | 1011.0 |
| 20260505032218 | 12 | 250 | 4.8 | 12.9 | 0.00 | 0.00 | 0.00 | 75 | 1010.8 |
| 20260505031716 | 12 | 201 | 9.7 | 22.5 | 0.00 | 0.00 | 0.00 | 74 | 1011.0 |
| 20260505031212 | 12 | 205 | 6.4 | 20.9 | 0.00 | 0.00 | 0.00 | 74 | 1011.1 |
| 20260505030709 | 12 | 226 | 4.8 | 16.1 | 0.00 | 0.00 | 0.00 | 74 | 1011.2 |
| 20260505030205 | 12 | 221 | 6.4 | 24.1 | 0.00 | 0.00 | 0.00 | 74 | 1011.0 |
| 20260505025700 | 12 | 183 | 4.8 | 22.5 | 0.00 | 0.00 | 0.00 | 74 | 1011.1 |
| 20260505025159 | 12 | 201 | 4.8 | 17.7 | 0.00 | 0.00 | 0.00 | 73 | 1011.0 |
| 20260505024657 | 12 | 209 | 8.0 | 17.7 | 0.00 | 0.00 | 0.00 | 73 | 1011.1 |
| 20260505024153 | 12 | 212 | 4.8 | 17.7 | 0.00 | 0.00 | 0.00 | 73 | 1011.0 |
| 20260505023651 | 12 | 180 | 4.8 | 17.7 | 0.00 | 0.00 | 0.00 | 73 | 1010.9 |
| 20260505023148 | 12 | 246 | 3.2 | 9.7 | 0.00 | 0.00 | 0.00 | 73 | 1011.0 |
| 20260505022646 | 12 | 210 | 8.0 | 22.5 | 0.00 | 0.00 | 0.00 | 73 | 1011.0 |
| 20260505022143 | 12 | 154 | 4.8 | 17.7 | 0.00 | 0.00 | 0.00 | 73 | 1011.3 |
| 20260505021639 | 12 | 199 | 6.4 | 14.5 | 0.00 | 0.00 | 0.00 | 73 | 1011.0 |
| 20260505021136 | 12 | 215 | 1.6 | 16.1 | 0.00 | 0.00 | 0.00 | 73 | 1011.0 |
| 20260505020631 | 12 | 234 | 6.4 | 22.5 | 0.00 | 0.00 | 0.00 | 73 | 1011.2 |
| 20260505020128 | 12 | 222 | 8.0 | 27.4 | 0.00 | 0.00 | 0.00 | 72 | 1010.8 |
| 20260505015625 | 12 | 203 | 9.7 | 19.3 | 0.00 | 0.00 | 0.00 | 72 | 1011.0 |
| 20260505015122 | 13 | 221 | 9.7 | 17.7 | 0.00 | 0.00 | 0.00 | 72 | 1011.0 |
| 20260505014618 | 13 | 223 | 17.7 | 30.6 | 0.00 | 0.00 | 0.00 | 71 | 1011.0 |
| 20260505014115 | 13 | 229 | 14.5 | 22.5 | 0.00 | 0.00 | 0.00 | 71 | 1010.8 |
| 20260505013613 | 13 | 222 | 11.3 | 14.5 | 0.00 | 0.00 | 0.00 | 71 | 1010.8 |
| 20260505013110 | 13 | 206 | 1.6 | 20.9 | 0.00 | 0.00 | 0.00 | 71 | 1010.7 |
| 20260505012608 | 13 | 244 | 6.4 | 25.7 | 0.00 | 0.00 | 0.00 | 71 | 1010.8 |
| 20260505012105 | 13 | 191 | 8.0 | 19.3 | 0.00 | 0.00 | 0.00 | 70 | 1010.8 |
| 20260505011600 | 13 | 236 | 12.9 | 25.7 | 0.00 | 0.00 | 0.00 | 69 | 1010.5 |
| 20260505011058 | 13 | 211 | 6.4 | 20.9 | 0.00 | 0.00 | 0.00 | 68 | 1010.8 |
| 20260505010558 | 13 | 224 | 17.7 | 20.9 | 0.00 | 0.00 | 0.00 | 68 | 1010.4 |
| 20260505010055 | 13 | 158 | 11.3 | 27.4 | 0.00 | 0.00 | 0.00 | 67 | 1010.4 |
| 20260505005552 | 13 | 235 | 4.8 | 17.7 | 0.00 | 0.00 | 0.00 | 66 | 1010.2 |
| 20260505005049 | 13 | 216 | 8.0 | 22.5 | 0.00 | 0.00 | 0.00 | 65 | 1010.1 |
| 20260505004546 | 13 | 240 | 4.8 | 27.4 | 0.00 | 0.00 | 0.00 | 64 | 1010.2 |
| 20260505004043 | 13 | 233 | 6.4 | 25.7 | 0.00 | 0.00 | 0.00 | 63 | 1009.8 |
| 20260505003540 | 13 | 226 | 6.4 | 16.1 | 0.00 | 0.00 | 0.00 | 62 | 1009.9 |
| 20260505003037 | 14 | 229 | 8.0 | 25.7 | 0.00 | 0.00 | 0.00 | 61 | 1009.8 |
| 20260505002537 | 14 | 209 | 4.8 | 14.5 | 0.00 | 0.00 | 0.00 | 61 | 1009.6 |
| 20260505002037 | 14 | 240 | 16.1 | 20.9 | 0.00 | 0.00 | 0.00 | 59 | 1009.4 |
| 20260505001534 | 14 | 214 | 4.8 | 17.7 | 0.00 | 0.00 | 0.00 | 58 | 1009.5 |
| 20260505001031 | 14 | 219 | 4.8 | 22.5 | 0.00 | 0.00 | 0.00 | 58 | 1009.5 |
| 20260505000528 | 15 | 232 | 9.7 | 25.7 | 0.00 | 0.00 | 0.00 | 57 | 1009.3 |
| 20260505000026 | 15 | 168 | 3.2 | 24.1 | 0.00 | 0.00 | 0.00 | 57 | 1009.2 |
| 20260504235522 | 15 | 152 | 11.3 | 35.4 | 0.00 | 0.00 | 0.00 | 56 | 1009.1 |
| 20260504235019 | 15 | 220 | 11.3 | 24.1 | 0.00 | 0.00 | 0.00 | 56 | 1009.2 |
| 20260504234516 | 15 | 243 | 9.7 | 14.5 | 0.00 | 0.00 | 0.00 | 56 | 1009.1 |
| 20260504234013 | 15 | 214 | 0.0 | 20.9 | 0.00 | 0.00 | 0.00 | 54 | 1009.1 |
| 20260504233508 | 15 | 230 | 16.1 | 20.9 | 0.00 | 0.00 | 0.00 | 54 | 1009.1 |
| 20260504233006 | 15 | 220 | 9.7 | 16.1 | 0.00 | 0.00 | 0.00 | 54 | 1009.2 |
| 20260504232502 | 15 | 214 | 9.7 | 20.9 | 0.00 | 0.00 | 0.00 | 53 | 1009.1 |
| 20260504232000 | 15 | 189 | 8.0 | 30.6 | 0.00 | 0.00 | 0.00 | 53 | 1008.8 |
| 20260504231456 | 16 | 205 | 8.0 | 12.9 | 0.00 | 0.00 | 0.00 | 53 | 1008.8 |
| 20260504230952 | 16 | 173 | 6.4 | 27.4 | 0.00 | 0.00 | 0.00 | 52 | 1008.6 |
| 20260504230449 | 16 | 203 | 8.0 | 9.7 | 0.00 | 0.00 | 0.00 | 52 | 1008.5 |
| 20260504225948 | 16 | 161 | 11.3 | 14.5 | 0.00 | 0.00 | 0.00 | 51 | 1008.4 |
| 20260504225444 | 16 | 200 | 12.9 | 20.9 | 0.00 | 0.00 | 0.00 | 51 | 1008.4 |
| 20260504224942 | 16 | 185 | 17.7 | 20.9 | 0.00 | 0.00 | 0.00 | 50 | 1008.3 |
| 20260504224438 | 16 | 217 | 9.7 | 24.1 | 0.00 | 0.00 | 0.00 | 50 | 1008.1 |
| 20260504223936 | 17 | 227 | 4.8 | 20.9 | 0.00 | 0.00 | 0.00 | 51 | 1008.2 |
| 20260504223431 | 17 | 198 | 9.7 | 20.9 | 0.00 | 0.00 | 0.00 | 50 | 1008.1 |
| 20260504222927 | 17 | 203 | 14.5 | 27.4 | 0.00 | 0.00 | 0.00 | 49 | 1008.0 |
| 20260504222425 | 17 | 202 | 4.8 | 38.6 | 0.00 | 0.00 | 0.00 | 49 | 1008.0 |
| 20260504221923 | 17 | 183 | 0.0 | 11.3 | 0.00 | 0.00 | 0.00 | 49 | 1008.1 |
| 20260504221419 | 18 | 190 | 3.2 | 17.7 | 0.00 | 0.00 | 0.00 | 48 | 1007.9 |
| 20260504220916 | 18 | 232 | 14.5 | 19.3 | 0.00 | 0.00 | 0.00 | 48 | 1007.9 |
| 20260504220413 | 18 | 166 | 6.4 | 16.1 | 0.00 | 0.00 | 0.00 | 47 | 1007.9 |
| 20260504215910 | 18 | 233 | 9.7 | 25.7 | 0.00 | 0.00 | 0.00 | 46 | 1008.2 |
| 20260504215406 | 18 | 294 | 20.9 | 22.5 | 0.00 | 0.00 | 0.00 | 46 | 1007.8 |
| 20260504214903 | 18 | 228 | 6.4 | 17.7 | 0.00 | 0.00 | 0.00 | 46 | 1008.0 |
| 20260504214359 | 18 | 241 | 8.0 | 17.7 | 0.00 | 0.00 | 0.00 | 45 | 1007.8 |
| 20260504213856 | 19 | 181 | 9.7 | 19.3 | 0.00 | 0.00 | 0.00 | 45 | 1007.8 |
| 20260504213352 | 18 | 168 | 1.6 | 25.7 | 0.00 | 0.00 | 0.00 | 45 | 1007.9 |
| 20260504212850 | 19 | 237 | 17.7 | 24.1 | 0.00 | 0.00 | 0.00 | 44 | 1007.6 |
| 20260504212346 | 19 | 188 | 3.2 | 20.9 | 0.00 | 0.00 | 0.00 | 43 | 1007.7 |
| 20260504211844 | 19 | 272 | 8.0 | 14.5 | 0.00 | 0.00 | 0.00 | 42 | 1007.7 |
| 20260504211339 | 20 | 226 | 9.7 | 14.5 | 0.00 | 0.00 | 0.00 | 41 | 1007.6 |
| 20260504210837 | 20 | 252 | 6.4 | 16.1 | 0.00 | 0.00 | 0.00 | 41 | 1007.5 |
| 20260504210334 | 20 | 163 | 4.8 | 20.9 | 0.00 | 0.00 | 0.00 | 41 | 1007.6 |
| 20260504205831 | 20 | 170 | 6.4 | 20.9 | 0.00 | 0.00 | 0.00 | 41 | 1007.6 |
| 20260504205329 | 20 | 198 | 3.2 | 8.0 | 0.00 | 0.00 | 0.00 | 40 | 1007.4 |
| 20260504204827 | 20 | 188 | 8.0 | 16.1 | 0.00 | 0.00 | 0.00 | 39 | 1007.6 |
| 20260504204325 | 20 | 270 | 8.0 | 27.4 | 0.00 | 0.00 | 0.00 | 40 | 1007.4 |
| 20260504203824 | 20 | 148 | 3.2 | 19.3 | 0.00 | 0.00 | 0.00 | 40 | 1007.6 |
| 20260504203321 | 20 | 259 | 9.7 | 32.2 | 0.00 | 0.00 | 0.00 | 39 | 1007.3 |
| 20260504202816 | 20 | 177 | 16.1 | 17.7 | 0.00 | 0.00 | 0.00 | 38 | 1007.4 |
| 20260504202314 | 20 | 296 | 8.0 | 27.4 | 0.00 | 0.00 | 0.00 | 38 | 1007.5 |
| 20260504201810 | 20 | 197 | 8.0 | 22.5 | 0.00 | 0.00 | 0.00 | 38 | 1007.5 |
| 20260504201308 | 20 | 123 | 6.4 | 29.0 | 0.00 | 0.00 | 0.00 | 39 | 1007.5 |
| 20260504200805 | 21 | 288 | 3.2 | 11.3 | 0.00 | 0.00 | 0.00 | 37 | 1007.3 |
| 20260504200301 | 20 | 190 | 4.8 | 29.0 | 0.00 | 0.00 | 0.00 | 39 | 1007.5 |
| 20260504195757 | 20 | 227 | 4.8 | 24.1 | 0.00 | 0.00 | 0.00 | 38 | 1007.4 |
| 20260504195253 | 20 | 223 | 8.0 | 16.1 | 0.00 | 0.00 | 0.00 | 37 | 1007.7 |
| 20260504194750 | 20 | 247 | 8.0 | 27.4 | 0.00 | 0.00 | 0.00 | 37 | 1007.5 |
| 20260504194247 | 20 | 217 | 9.7 | 43.5 | 0.00 | 0.00 | 0.00 | 37 | 1007.3 |
| 20260504193743 | 21 | 228 | 8.0 | 16.1 | 0.00 | 0.00 | 0.00 | 38 | 1007.3 |
| 20260504193240 | 20 | 212 | 11.3 | 30.6 | 0.00 | 0.00 | 0.00 | 37 | 1007.5 |
| 20260504192739 | 21 | 201 | 16.1 | 19.3 | 0.00 | 0.00 | 0.00 | 36 | 1007.6 |
| 20260504192237 | 20 | 235 | 6.4 | 33.8 | 0.00 | 0.00 | 0.00 | 37 | 1007.6 |
| 20260504191735 | 21 | 212 | 11.3 | 20.9 | 0.00 | 0.00 | 0.00 | 37 | 1007.4 |
| 20260504191232 | 20 | 194 | 6.4 | 41.8 | 0.00 | 0.00 | 0.00 | 36 | 1007.6 |
| 20260504190726 | 21 | 160 | 11.3 | 32.2 | 0.00 | 0.00 | 0.00 | 35 | 1007.3 |
| 20260504190224 | 22 | 225 | 4.8 | 14.5 | 0.00 | 0.00 | 0.00 | 33 | 1007.5 |
| 20260504185720 | 22 | 141 | 6.4 | 11.3 | 0.00 | 0.00 | 0.00 | 32 | 1007.7 |
| 20260504185217 | 21 | 190 | 8.0 | 32.2 | 0.00 | 0.00 | 0.00 | 32 | 1007.6 |
| 20260504184713 | 21 | 240 | 16.1 | 27.4 | 0.00 | 0.00 | 0.00 | 31 | 1007.7 |
| 20260504184209 | 21 | 172 | 4.8 | 24.1 | 0.00 | 0.00 | 0.00 | 33 | 1007.6 |
| 20260504183705 | 21 | 212 | 3.2 | 30.6 | 0.00 | 0.00 | 0.00 | 33 | 1007.7 |
| 20260504183202 | 21 | 283 | 8.0 | 24.1 | 0.00 | 0.00 | 0.00 | 31 | 1007.8 |
| 20260504182700 | 21 | 261 | 6.4 | 30.6 | 0.00 | 0.00 | 0.00 | 32 | 1008.0 |
| 20260504182157 | 21 | 197 | 9.7 | 27.4 | 0.00 | 0.00 | 0.00 | 32 | 1008.2 |
| 20260504181655 | 21 | 239 | 9.7 | 35.4 | 0.00 | 0.00 | 0.00 | 31 | 1007.8 |
| 20260504181152 | 21 | 180 | 4.8 | 29.0 | 0.00 | 0.00 | 0.00 | 32 | 1007.9 |
| 20260504180651 | 20 | 237 | 11.3 | 35.4 | 0.00 | 0.00 | 0.00 | 31 | 1008.1 |
| 20260504180149 | 21 | 172 | 14.5 | 22.5 | 0.00 | 0.00 | 0.00 | 31 | 1008.1 |
| 20260504175646 | 21 | 92 | 9.7 | 17.7 | 0.00 | 0.00 | 0.00 | 32 | 1007.9 |
| 20260504175143 | 21 | 207 | 11.3 | 24.1 | 0.00 | 0.00 | 0.00 | 33 | 1007.8 |
| 20260504174641 | 21 | 218 | 30.6 | 30.6 | 0.00 | 0.00 | 0.00 | 32 | 1007.8 |
| 20260504174137 | 21 | 225 | 17.7 | 27.4 | 0.00 | 0.00 | 0.00 | 32 | 1007.5 |
| 20260504173635 | 20 | 225 | 12.9 | 35.4 | 0.00 | 0.00 | 0.00 | 32 | 1007.9 |
| 20260504173132 | 21 | 246 | 14.5 | 32.2 | 0.00 | 0.00 | 0.00 | 32 | 1007.6 |
| 20260504172628 | 20 | 258 | 6.4 | 24.1 | 0.00 | 0.00 | 0.00 | 33 | 1007.8 |
| 20260504172125 | 21 | 251 | 8.0 | 33.8 | 0.00 | 0.00 | 0.00 | 32 | 1008.1 |
| 20260504171621 | 21 | 226 | 9.7 | 20.9 | 0.00 | 0.00 | 0.00 | 33 | 1007.8 |
| 20260504171119 | 21 | 222 | 9.7 | 33.8 | 0.00 | 0.00 | 0.00 | 33 | 1007.8 |
| 20260504170615 | 21 | 200 | 8.0 | 22.5 | 0.00 | 0.00 | 0.00 | 34 | 1007.9 |
| 20260504170113 | 21 | 307 | 3.2 | 19.3 | 0.00 | 0.00 | 0.00 | 33 | 1008.0 |
| 20260504150958 | 19 | 286 | 3.2 | 14.5 | 0.00 | 0.00 | 0.00 | 36 | 1009.4 |
| 20260504150455 | 19 | 264 | 8.0 | 17.7 | 0.00 | 0.00 | 0.00 | 36 | 1009.3 |
| 20260504140921 | 17 | 246 | 6.4 | 17.7 | 0.00 | 0.00 | 0.00 | 41 | 1010.3 |
| 20260504140418 | 17 | 270 | 1.6 | 17.7 | 0.00 | 0.00 | 0.00 | 42 | 1010.3 |
| 20260504130343 | 15 | 203 | 8.0 | 9.7 | 0.00 | 0.00 | 0.00 | 44 | 1010.7 |
| 20260504120306 | 12 | 248 | 6.4 | 22.5 | 0.00 | 0.00 | 0.00 | 51 | 1011.1 |
| 20260504110230 | 9 | 225 | 3.2 | 11.3 | 0.00 | 0.00 | 0.00 | 59 | 1011.2 |